FLOCK 4A-5 (44095 NORAD) Tracking and Keplerian Element Data

This shows tracking and keplerian element data for the satellite.

Feedback or suggestion? Click here.




ElementValue
Catalog44095
NameFLOCK 4A-5
Epoch Orbit21102
Epoch Day14.11697442
Epoch Year2023
RAAN77.7433
Inclination97.2802
Eccentricity0.000552
Argument of Perigee76.467
Mean Anonmoly283.7197
Mean Motion15.51153638
Decay Rate0.0020535
L11 44095U 19018T 23014.11697442 .00205350 00000+0 34331-2 0 9995
L22 44095 97.2802 77.7433 0005520 76.4670 283.7197 15.51153638211026



Live tracking and technical data element details for FLOCK 4A-5 (NORAD 44095). FLOCK 4A-5 can be tracked NOW for your location showing map with azimuth and elevation plus other details from your city location.







IsCatalogInMostPopularTable: catalog: 44095, numindb: 300
Update: records affected: 1



GetName: 44095 FLOCK 4A-5

Hit Count: updated at: Thu, 15 May 2025 10:31:34 GMT